Time,TemperatureF,DewpointF,PressureIn,WindDirection,WindDirectionDegrees,WindSpeedMPH,WindSpeedGustMPH,Humidity,HourlyPrecipIn,Conditions,Clouds,dailyrainin,SoftwareType,DateUTC
2013-07-07 01:11:00,80.0,59.0,28.28,SSE,153,5.0,10.0,49,0.00,,,0.00,,2013-07-07 06:11:00,
2013-07-07 01:21:00,80.0,59.0,28.28,SSE,153,5.0,10.0,49,0.00,,,0.00,,2013-07-07 06:21:00,
2013-07-07 01:32:00,80.0,59.0,28.28,SSW,195,4.0,10.0,48,0.00,,,0.00,,2013-07-07 06:32:00,
2013-07-07 01:43:00,80.0,59.0,28.28,SSW,195,4.0,10.0,48,0.00,,,0.00,,2013-07-07 06:43:00,
2013-07-07 01:52:00,79.0,58.0,28.28,ESE,122,4.0,10.0,48,0.00,,,0.00,,2013-07-07 06:52:00,
2013-07-07 02:02:00,79.0,58.0,28.28,ESE,122,4.0,10.0,48,0.00,,,0.00,,2013-07-07 07:02:00,
2013-07-07 02:11:00,79.0,58.0,28.28,ESE,111,5.0,10.0,49,0.00,,,0.00,,2013-07-07 07:11:00,
2013-07-07 02:22:00,79.0,58.0,28.28,ESE,111,5.0,10.0,49,0.00,,,0.00,,2013-07-07 07:22:00,
2013-07-07 02:33:00,79.0,58.0,28.28,ESE,111,5.0,10.0,49,0.00,,,0.00,,2013-07-07 07:33:00,
2013-07-07 02:44:00,79.0,58.0,28.28,NNE,26,3.0,10.0,49,0.00,,,0.00,,2013-07-07 07:44:00,
2013-07-07 02:53:00,79.0,59.0,28.28,ESE,112,5.0,10.0,50,0.00,,,0.00,,2013-07-07 07:53:00,
2013-07-07 03:02:00,79.0,59.0,28.28,ESE,112,5.0,10.0,50,0.00,,,0.00,,2013-07-07 08:02:00,
2013-07-07 03:12:00,79.0,59.0,28.28,ESE,112,5.0,10.0,50,0.00,,,0.00,,2013-07-07 08:12:00,
2013-07-07 03:22:00,79.0,59.0,28.28,ESE,112,5.0,10.0,50,0.00,,,0.00,,2013-07-07 08:22:00,
2013-07-07 03:53:00,79.0,59.0,28.28,SSE,162,3.0,7.0,51,0.00,,,0.00,,2013-07-07 08:53:00,
2013-07-07 04:02:00,78.0,59.0,28.31,SE,124,3.0,8.0,52,0.00,,,0.00,,2013-07-07 09:02:00,
2013-07-07 04:12:00,78.0,59.0,28.31,SE,124,3.0,8.0,52,0.00,,,0.00,,2013-07-07 09:12:00,
2013-07-07 04:22:00,78.0,59.0,28.31,West,270,2.0,5.0,53,0.00,,,0.00,,2013-07-07 09:22:00,
2013-07-07 04:34:00,78.0,60.0,28.31,SW,232,3.0,8.0,54,0.00,,,0.00,,2013-07-07 09:34:00,
2013-07-07 04:43:00,78.0,60.0,28.31,SW,232,3.0,8.0,54,0.00,,,0.00,,2013-07-07 09:43:00,
2013-07-07 04:53:00,77.0,60.0,28.31,SE,141,5.0,8.0,55,0.00,,,0.00,,2013-07-07 09:53:00,
2013-07-07 05:03:00,77.0,60.0,28.31,SSE,157,7.0,8.0,55,0.00,,,0.00,,2013-07-07 10:03:00,
2013-07-07 05:12:00,77.0,60.0,28.31,ESE,113,3.0,8.0,56,0.00,,,0.00,,2013-07-07 10:12:00,
2013-07-07 05:22:00,77.0,60.0,28.31,ESE,113,3.0,8.0,56,0.00,,,0.00,,2013-07-07 10:22:00,
2013-07-07 05:32:00,76.0,60.0,28.31,SSE,157,3.0,5.0,57,0.00,,,0.00,,2013-07-07 10:32:00,
2013-07-07 05:43:00,76.0,60.0,28.31,SE,129,2.0,5.0,57,0.00,,,0.00,,2013-07-07 10:43:00,
2013-07-07 05:52:00,76.0,60.0,28.31,NW,318,3.0,5.0,57,0.00,,,0.00,,2013-07-07 10:52:00,
2013-07-07 06:02:00,76.0,60.0,28.31,South,184,3.0,5.0,57,0.00,,,0.00,,2013-07-07 11:02:00,
2013-07-07 06:11:00,76.0,60.0,28.31,SW,223,2.0,5.0,57,0.00,,,0.00,,2013-07-07 11:11:00,
2013-07-07 06:23:00,76.0,60.0,28.31,SSE,159,3.0,5.0,57,0.00,,,0.00,,2013-07-07 11:23:00,
2013-07-07 06:34:00,76.0,59.0,28.31,SE,126,3.0,5.0,56,0.00,,,0.00,,2013-07-07 11:34:00,
2013-07-07 06:43:00,75.0,58.0,28.31,SE,131,3.0,5.0,56,0.00,,,0.00,,2013-07-07 11:43:00,
2013-07-07 06:53:00,75.0,58.0,28.31,ENE,64,3.0,5.0,56,0.00,,,0.00,,2013-07-07 11:53:00,
2013-07-07 07:02:00,75.0,58.0,28.31,SE,127,3.0,5.0,55,0.00,,,0.00,,2013-07-07 12:02:00,
2013-07-07 07:12:00,75.0,58.0,28.31,SE,127,3.0,5.0,55,0.00,,,0.00,,2013-07-07 12:12:00,
2013-07-07 07:22:00,76.0,58.0,28.31,SE,128,3.0,5.0,54,0.00,,,0.00,,2013-07-07 12:22:00,
2013-07-07 07:34:00,76.0,58.0,28.31,SE,130,5.0,7.0,53,0.00,,,0.00,,2013-07-07 12:34:00,
2013-07-07 07:43:00,76.0,58.0,28.34,SE,135,0.0,7.0,53,0.00,,,0.00,,2013-07-07 12:43:00,
2013-07-07 07:52:00,76.0,57.0,28.34,SSE,165,2.0,7.0,52,0.00,,,0.00,,2013-07-07 12:52:00,
2013-07-07 08:02:00,76.0,57.0,28.34,SSE,165,2.0,7.0,52,0.00,,,0.00,,2013-07-07 13:02:00,
2013-07-07 08:11:00,76.0,57.0,28.34,SSE,165,2.0,7.0,52,0.00,,,0.00,,2013-07-07 13:11:00,
2013-07-07 08:22:00,77.0,57.0,28.34,ESE,122,3.0,4.0,51,0.00,,,0.00,,2013-07-07 13:22:00,
2013-07-07 08:34:00,77.0,57.0,28.34,ESE,122,3.0,4.0,51,0.00,,,0.00,,2013-07-07 13:34:00,
2013-07-07 08:43:00,78.0,58.0,28.34,SE,124,3.0,5.0,50,0.00,,,0.00,,2013-07-07 13:43:00,
2013-07-07 08:52:00,78.0,57.0,28.34,SSE,152,3.0,7.0,48,0.00,,,0.00,,2013-07-07 13:52:00,
2013-07-07 09:02:00,78.0,57.0,28.34,SE,128,3.0,7.0,48,0.00,,,0.00,,2013-07-07 14:02:00,
2013-07-07 09:12:00,78.0,57.0,28.34,SE,128,3.0,7.0,48,0.00,,,0.00,,2013-07-07 14:12:00,
2013-07-07 09:22:00,80.0,57.0,28.34,South,179,5.0,7.0,45,0.00,,,0.00,,2013-07-07 14:22:00,
2013-07-07 09:34:00,80.0,57.0,28.34,South,179,5.0,7.0,45,0.00,,,0.00,,2013-07-07 14:34:00,
2013-07-07 09:43:00,80.0,57.0,28.34,South,179,5.0,7.0,45,0.00,,,0.00,,2013-07-07 14:43:00,
2013-07-07 09:53:00,80.0,57.0,28.34,South,179,5.0,7.0,45,0.00,,,0.00,,2013-07-07 14:53:00,
2013-07-07 10:02:00,80.0,57.0,28.34,South,179,5.0,7.0,45,0.00,,,0.00,,2013-07-07 15:02:00,
2013-07-07 10:22:00,83.0,58.0,28.34,ESE,104,5.0,5.0,42,0.00,,,0.00,,2013-07-07 15:22:00,
2013-07-07 10:34:00,85.0,57.0,28.34,WNW,300,5.0,8.0,38,0.00,,,0.00,,2013-07-07 15:34:00,
2013-07-07 10:52:00,87.0,55.0,28.34,SW,221,5.0,8.0,34,0.00,,,0.00,,2013-07-07 15:52:00,
2013-07-07 11:01:00,87.0,55.0,28.34,East,93,3.0,9.0,34,0.00,,,0.00,,2013-07-07 16:01:00,
2013-07-07 11:11:00,87.0,55.0,28.34,East,93,3.0,9.0,34,0.00,,,0.00,,2013-07-07 16:11:00,
2013-07-07 11:53:00,91.0,54.0,28.31,South,175,3.0,11.0,29,0.00,,,0.00,,2013-07-07 16:53:00,
2013-07-07 12:02:00,91.0,54.0,28.31,South,175,3.0,11.0,29,0.00,,,0.00,,2013-07-07 17:02:00,
2013-07-07 12:12:00,91.0,54.0,28.31,South,175,3.0,11.0,29,0.00,,,0.00,,2013-07-07 17:12:00,
2013-07-07 12:22:00,92.0,54.0,28.31,SW,219,3.0,5.0,28,0.00,,,0.00,,2013-07-07 17:22:00,
2013-07-07 12:33:00,93.0,54.0,28.31,South,189,3.0,9.0,27,0.00,,,0.00,,2013-07-07 17:33:00,
2013-07-07 12:34:00,92.0,54.0,28.34,SSE,152,5.0,8.0,28,0.00,,,0.00,,2013-07-07 17:34:00,
2013-07-07 12:43:00,93.0,55.0,28.31,SSE,165,3.0,9.0,28,0.00,,,0.00,,2013-07-07 17:43:00,
2013-07-07 13:11:00,93.0,54.0,28.31,South,189,3.0,9.0,27,0.00,,,0.00,,2013-07-07 18:11:00,
2013-07-07 13:22:00,93.0,54.0,28.31,South,189,3.0,9.0,27,0.00,,,0.00,,2013-07-07 18:22:00,
2013-07-07 13:53:00,96.0,56.0,28.31,NNW,338,3.0,12.0,26,0.00,,,0.00,,2013-07-07 18:53:00,
2013-07-07 14:01:00,96.0,56.0,28.31,SW,217,11.0,12.0,26,0.00,,,0.00,,2013-07-07 19:01:00,
2013-07-07 14:54:00,97.0,54.0,28.31,SE,132,5.0,7.0,24,0.00,,,0.00,,2013-07-07 19:54:00,
2013-07-07 15:42:00,100.0,53.0,28.31,SSE,159,4.0,7.0,21,0.00,,,0.00,,2013-07-07 20:42:00,
2013-07-07 21:33:00,91.0,52.0,28.28,SE,133,3.0,7.0,27,0.00,,,0.00,,2013-07-08 02:33:00,
2013-07-07 21:42:00,91.0,53.0,28.28,ESE,121,2.0,7.0,28,0.00,,,0.00,,2013-07-08 02:42:00,
2013-07-07 21:52:00,91.0,53.0,28.28,ESE,121,2.0,7.0,28,0.00,,,0.00,,2013-07-08 02:52:00,
2013-07-07 22:01:00,90.0,53.0,28.31,SE,146,3.0,9.0,29,0.00,,,0.00,,2013-07-08 03:01:00,
2013-07-07 22:34:00,89.0,54.0,28.31,SSE,151,4.0,8.0,31,0.00,,,0.00,,2013-07-08 03:34:00,
2013-07-07 22:42:00,89.0,54.0,28.34,South,180,5.0,8.0,31,0.00,,,0.00,,2013-07-08 03:42:00,
2013-07-07 22:52:00,89.0,54.0,28.34,South,180,5.0,8.0,31,0.00,,,0.00,,2013-07-08 03:52:00,
2013-07-07 23:01:00,88.0,54.0,28.34,SE,136,4.0,8.0,32,0.00,,,0.00,,2013-07-08 04:01:00,
2013-07-07 23:11:00,88.0,55.0,28.34,East,93,2.0,8.0,33,0.00,,,0.00,,2013-07-08 04:11:00,
2013-07-07 23:22:00,88.0,55.0,28.34,East,93,2.0,8.0,33,0.00,,,0.00,,2013-07-08 04:22:00,
2013-07-07 23:33:00,88.0,55.0,28.34,East,93,2.0,8.0,33,0.00,,,0.00,,2013-07-08 04:33:00,
2013-07-07 23:42:00,87.0,56.0,28.34,SE,142,3.0,7.0,35,0.00,,,0.00,,2013-07-08 04:42:00,
2013-07-07 23:53:00,87.0,56.0,28.34,SE,142,3.0,7.0,35,0.00,,,0.00,,2013-07-08 04:53:00,